2021-123B

Last updated on Sun Apr 24 2022 00:02:39 GMT+0000 (Coordinated Universal Time)

1 50002U 21123B 22113.12735728 -.00000334 00000+0 00000+0 0 9999 2 50002 0.0213 320.8878 0001085 217.4669 181.6412 1.00268051 1311
UTC large
Height (km)
Speed (km/s)
/
Latitude / Longitude
Inclination (degrees)
Orbital Period (minutes)
Azimuth
Elevation
Range (km)
Doppler Factor

Next 0 passes for location: London (51.5072 / 0.1276)

Sorry there are no passes over London.